[[{"header":{"parameterUnit":"m.s-1","parameterCategory":2,"la1":30.2991,"la2":30.254,"lo1":-89.0895,"lo2":-89.0444,"dy":0.0017,"dx":0.0017,"nx":28,"ny":28,"refTime":"2025-02-06T09:00:00:Z","depth":"0","parameterNumber":2,"parameterNumberName":"U-component_of_CURRENTS"},"data":[0,0,0,0,0,0,0,0,0,0,0,0,0,0,0,0,0,0,0,0,0,0,0,0,0,0,0,0,0,0,0,0,0,0,0,0,0,0,0,0,0,0,0,0,0,0,0,0,0,0,0,0,0,0,0,0,0,0,-0.3051,-0.3052,0,-0.312,-0.3121,-0.3122,-0.3148,-0.3148,-0.3148,-0.3148,-0.3153,-0.3153,-0.3153,0,0,0,0,0,0,0,0,0,0,0,0,0,-0.2921,-0.2923,-0.3051,-0.3052,-0.3053,-0.312,-0.3121,-0.3122,-0.3148,-0.3148,-0.3148,-0.3148,-0.3153,-0.3153,-0.3153,0,0,0,0,0,0,0,0,0,0,0,0,0,-0.298,-0.2924,-0.3051,-0.3077,-0.308,-0.312,-0.3121,-0.3122,-0.3148,-0.3148,-0.3148,-0.3148,-0.3153,-0.3153,-0.3153,-0.3151,0,0,-0.3153,-0.3153,0,0,0,0,0,0,0,0,-0.2976,-0.2984,-0.3072,-0.3075,-0.3079,-0.3128,-0.3077,-0.313,-0.3148,-0.3119,-0.3148,-0.3149,-0.3141,-0.3142,-0.3151,-0.3152,-0.3152,-0.3153,-0.3153,-0.3153,-0.3153,0,0,0,0,0,0,0,-0.2972,-0.2981,-0.3075,-0.3073,-0.3077,-0.3078,-0.3086,-0.3087,-0.3125,-0.3122,-0.3124,-0.3137,-0.3142,-0.3151,-0.3151,-0.3152,-0.3153,-0.3153,-0.3154,-0.3154,-0.3109,-0.3108,0,0,0,0,0,0,-0.2971,-0.2978,-0.3073,-0.3078,-0.303,-0.3081,-0.309,-0.311,-0.3126,-0.313,-0.3137,-0.3138,-0.3151,-0.3151,-0.3152,-0.3116,-0.3153,-0.3154,-0.3154,-0.311,-0.3109,-0.3107,0,0,0,0,0,0,-0.2968,-0.2979,-0.307,-0.3031,-0.3043,-0.3083,-0.3105,-0.3111,-0.312,-0.3139,-0.3141,-0.314,-0.3151,-0.3151,-0.3146,-0.3118,-0.3154,-0.3154,-0.3112,-0.311,-0.3108,-0.3068,0,0,0,0,0,0,-0.2964,-0.2978,-0.2975,-0.3031,-0.3045,-0.3074,-0.3106,-0.3113,-0.313,-0.3132,-0.3143,-0.3144,-0.3151,-0.3145,-0.3146,-0.3119,-0.3154,-0.3113,-0.3111,-0.3109,-0.307,-0.3065,-0.306,0,0,0,0,0,-0.2959,-0.2945,-0.2975,-0.2986,-0.3047,-0.3074,-0.3079,-0.3107,-0.313,-0.3118,-0.3136,-0.3143,-0.313,-0.3145,-0.3146,-0.3118,-0.3114,-0.3111,-0.3109,-0.3073,-0.3066,-0.306,0,0,0,0,0,0,-0.2864,-0.2949,-0.2982,-0.2989,-0.3026,-0.3079,-0.3066,-0.3104,-0.3113,-0.311,-0.3137,-0.3138,-0.3116,-0.3125,-0.314,-0.3096,-0.3119,-0.3116,-0.3092,-0.3085,-0.308,-0.3093,-0.3154,0,0,0,0,0,-0.2852,-0.2873,-0.2947,-0.2946,-0.2964,-0.302,-0.3032,-0.306,-0.3086,-0.309,-0.3103,-0.3108,-0.3105,-0.3103,-0.3096,-0.3082,-0.3081,-0.306,-0.3055,-0.305,-0.306,-0.3039,-0.3032,-0.3098,-0.3098,-0.3098,0,0,-0.2814,-0.2861,-0.2871,-0.2928,-0.2957,-0.2985,-0.3025,-0.3037,-0.3056,-0.3087,-0.3088,-0.3087,-0.3096,-0.3074,-0.3065,-0.3079,-0.3025,-0.3046,-0.3043,-0.3055,-0.3035,-0.3029,-0.3023,-0.3096,-0.3097,-0.3097,0,0,-0.2761,-0.2792,-0.2807,-0.2842,-0.2894,-0.2931,-0.2938,-0.2992,-0.3003,-0.3017,-0.3035,-0.3025,-0.3027,-0.3026,-0.303,-0.2991,-0.2994,-0.2979,-0.2967,-0.2945,-0.294,-0.2936,-0.2904,-0.2897,-0.298,-0.2979,-0.2979,0,-0.2716,-0.2757,-0.2804,-0.2833,-0.2859,-0.2911,-0.2934,-0.2952,-0.2994,-0.3003,-0.3003,-0.3009,-0.3006,-0.3001,-0.2983,-0.2979,-0.2967,-0.2993,-0.2939,-0.2935,-0.2931,-0.29,-0.2893,-0.2977,-0.2977,-0.2978,-0.2978,0,-0.27,-0.2729,-0.2727,-0.2799,-0.2821,-0.2836,-0.2892,-0.29,-0.2925,-0.2954,-0.2945,-0.2944,-0.2954,-0.2936,-0.2952,-0.2921,-0.292,-0.2932,-0.2959,-0.2922,-0.2891,-0.2884,-0.2974,-0.2975,-0.2975,-0.2976,0,0,-0.2621,-0.2708,-0.2709,-0.2745,-0.2811,-0.283,-0.2849,-0.2891,-0.2909,-0.2913,-0.2928,-0.2908,-0.2914,-0.2918,-0.292,-0.29,-0.2848,-0.2905,-0.2905,-0.2879,-0.279,-0.2709,-0.2694,-0.2851,-0.285,-0.285,-0.2771,0,-0.2602,-0.265,-0.2699,-0.2731,-0.2764,-0.2817,-0.2837,-0.2871,-0.2892,-0.2906,-0.2903,-0.2905,-0.2906,-0.2903,-0.2882,-0.2871,-0.2833,-0.2868,-0.2826,-0.2825,-0.2762,-0.2685,-0.2582,-0.2496,-0.2764,-0.2763,-0.2763,0,-0.2584,-0.2624,-0.266,-0.2731,-0.2748,-0.2767,-0.2814,-0.284,-0.2872,-0.2887,-0.2891,-0.29,-0.2884,-0.288,-0.2832,-0.2857,-0.2815,-0.2794,-0.2791,-0.2731,-0.2731,-0.258,-0.2474,-0.2458,-0.2753,-0.2754,-0.2754,0,-0.2523,-0.2595,-0.2623,-0.2648,-0.2729,-0.2743,-0.2778,-0.2824,-0.2843,-0.2871,-0.2879,-0.2878,-0.2865,-0.2832,-0.2795,-0.2812,-0.273,-0.2749,-0.263,-0.2624,-0.2537,-0.2524,-0.2417,-0.2687,-0.2687,-0.2687,-0.2687,0,-0.2494,-0.2512,-0.2595,-0.2609,-0.2631,-0.2704,-0.2721,-0.276,-0.2805,-0.2815,-0.2857,-0.2853,-0.2851,-0.2815,-0.2782,-0.2678,-0.2715,-0.2608,-0.259,-0.2515,-0.2502,-0.2487,-0.2525,-0.2684,-0.2685,-0.2685,-0.2686,0,-0.2415,-0.2478,-0.2508,-0.2585,-0.2603,-0.2613,-0.268,-0.2694,-0.2754,-0.2766,-0.2773,-0.2817,-0.2774,-0.2751,-0.2691,-0.264,-0.2517,-0.2516,-0.2421,-0.2393,-0.2263,-0.2303,-0.2205,-0.2138,-0.2368,-0.2365,-0.2363,0,-0.2377,-0.2388,-0.246,-0.2469,-0.2496,-0.253,-0.2551,-0.264,-0.2663,-0.2734,-0.2728,-0.2717,-0.2675,-0.2567,-0.2481,-0.2377,-0.2398,-0.2229,-0.2234,-0.2215,-0.2249,-0.2291,-0.2246,-0.2097,-0.2093,-0.209,-0.2087,0,-0.2287,-0.2314,-0.2336,-0.236,-0.2381,-0.2408,-0.2451,-0.2465,-0.2565,-0.2582,-0.2591,-0.2567,-0.2485,-0.2342,-0.2225,-0.2158,-0.2179,-0.2153,-0.2156,-0.2035,-0.2051,-0.1991,-0.2199,-0.2056,-0.2059,-0.2061,-0.2063,-0.2064,-0.2197,-0.2188,-0.2219,-0.2224,-0.2249,-0.2253,-0.223,-0.2295,-0.2305,-0.2312,-0.2393,-0.2331,-0.2255,-0.2069,-0.1992,-0.1847,-0.1928,-0.1804,-0.1855,-0.19,-0.1825,-0.1954,-0.1783,-0.1785,-0.1786,-0.1787,-0.1788,0,-0.2072,-0.2075,-0.208,-0.2083,-0.205,-0.2111,-0.2131,-0.2089,-0.2052,-0.2115,-0.2096,-0.2036,-0.1884,-0.1831,-0.169,-0.1594,-0.1559,-0.1568,-0.1613,-0.158,-0.1694,-0.1671,-0.1438,-0.1438,-0.1438,-0.1438,-0.1438,-0.1438,-0.2007,-0.1963,-0.1967,-0.1871,-0.1866,-0.1785,-0.1761,-0.1727,-0.1743,-0.1688,-0.1701,-0.171,-0.1694,-0.1774,-0.1617,-0.1517,-0.1491,-0.1437,-0.1473,-0.1585,-0.1612,-0.1638,-0.1622,-0.1383,-0.1383,-0.1289,-0.1289,-0.1288]},{"header":{"parameterUnit":"m.s-1","parameterCategory":2,"la1":30.2991,"la2":30.254,"lo1":-89.0895,"lo2":-89.0444,"dy":0.0017,"dx":0.0017,"nx":28,"ny":28,"refTime":"2025-02-06T09:00:00:Z","depth":"0","parameterNumber":3,"parameterNumberName":"V-component_of_CURRENTS"},"data":[0,0,0,0,0,0,0,0,0,0,0,0,0,0,0,0,0,0,0,0,0,0,0,0,0,0,0,0,0,0,0,0,0,0,0,0,0,0,0,0,0,0,0,0,0,0,0,0,0,0,0,0,0,0,0,0,0,0,-0.0062,-0.0061,0,0.007,0.0071,0.0073,0.0207,0.0208,0.021,0.0211,0.0399,0.0402,0.0406,0,0,0,0,0,0,0,0,0,0,0,0,0,-0.015,-0.0149,-0.0062,-0.0061,-0.0059,0.0069,0.0071,0.0074,0.0206,0.0208,0.021,0.0212,0.0397,0.0402,0.0406,0,0,0,0,0,0,0,0,0,0,0,0,0,-0.0071,-0.0149,-0.0062,0.002,0.0028,0.0069,0.0072,0.0074,0.0206,0.0208,0.021,0.0212,0.0396,0.0401,0.0407,0.0397,0,0,0.0423,0.0426,0,0,0,0,0,0,0,0,-0.0076,-0.0068,0.0006,0.0014,0.0023,0.0121,0.0109,0.0184,0.0205,0.0142,0.0211,0.0213,0.0307,0.032,0.0344,0.0405,0.0413,0.0424,0.0427,0.0429,0.0431,0,0,0,0,0,0,0,-0.0081,-0.0072,-0.0006,0.0007,0.0018,0.0066,0.008,0.0124,0.0215,0.0148,0.0157,0.0165,0.0313,0.0338,0.035,0.0416,0.0424,0.0429,0.0432,0.0434,0.0491,0.049,0,0,0,0,0,0,-0.011,-0.0078,-0.001,-0.0002,-0.0026,0.0065,0.0081,0.009,0.0213,0.0233,0.0163,0.0171,0.0328,0.0343,0.0357,0.036,0.0429,0.0435,0.0438,0.0493,0.0491,0.0489,0,0,0,0,0,0,-0.0113,-0.0105,-0.0016,-0.004,-0.0026,0.0064,0.0074,0.0092,0.012,0.0223,0.0245,0.0173,0.033,0.0349,0.0388,0.0368,0.0437,0.0442,0.0495,0.0492,0.049,0.036,0,0,0,0,0,0,-0.0116,-0.0107,-0.0117,-0.0042,-0.0025,-0.0007,0.0072,0.0093,0.012,0.0131,0.0238,0.0258,0.0334,0.0379,0.0393,0.0377,0.0446,0.0497,0.0494,0.0491,0.0367,0.0354,0.0342,0,0,0,0,0,-0.0119,-0.0146,-0.0118,-0.011,-0.0039,-0.0009,0.0003,0.0078,0.0117,0.0114,0.0189,0.0255,0.0369,0.0382,0.0399,0.0383,0.0499,0.0495,0.0491,0.0372,0.0356,0.0343,0,0,0,0,0,0,-0.0192,-0.0133,-0.0101,-0.0108,-0.0069,0.0012,0.0012,0.006,0.0116,0.0129,0.0234,0.0257,0.0282,0.0341,0.0353,0.0387,0.0444,0.0443,0.0347,0.0333,0.0321,0.0328,0.0451,0,0,0,0,0,-0.0216,-0.0214,-0.0154,-0.0161,-0.0148,-0.0072,-0.0053,-0.0006,0.0054,0.0083,0.0155,0.0226,0.0276,0.0311,0.0361,0.0379,0.0444,0.0378,0.0366,0.0355,0.037,0.0425,0.042,0.0476,0.0476,0.0476,0,0,-0.0244,-0.0215,-0.0212,-0.0176,-0.0136,-0.0128,-0.0054,-0.0037,-0.0021,0.009,0.0124,0.0179,0.0267,0.0291,0.0307,0.0343,0.0369,0.035,0.034,0.0363,0.0421,0.0416,0.0411,0.0474,0.0474,0.0474,0,0,-0.0302,-0.0278,-0.0292,-0.027,-0.023,-0.0185,-0.0189,-0.0123,-0.0084,-0.0056,0.0026,0.007,0.0145,0.021,0.0252,0.0198,0.0293,0.0204,0.0163,0.0214,0.021,0.0208,0.0268,0.0272,0.0208,0.0207,0.0207,0,-0.0337,-0.0342,-0.0295,-0.0305,-0.0292,-0.0219,-0.023,-0.019,-0.0119,-0.0091,-0.0064,0.005,0.0113,0.0167,0.0152,0.0173,0.0221,0.0212,0.0199,0.0198,0.0199,0.0261,0.0267,0.0201,0.0202,0.0202,0.0203,0,-0.0394,-0.0401,-0.0415,-0.0392,-0.0378,-0.0383,-0.0324,-0.0304,-0.0256,-0.0201,-0.0151,-0.0068,0.0012,0.0022,0.0077,0.0104,0.0142,0.0168,0.0238,0.0185,0.0254,0.0263,0.0191,0.0194,0.0196,0.0197,0,0,-0.0455,-0.0453,-0.0456,-0.0461,-0.0425,-0.0419,-0.0406,-0.0363,-0.0341,-0.028,-0.0241,-0.0168,-0.0111,-0.006,0.0006,0.0055,0.0082,0.0106,0.0112,0.0168,0.0203,0.0256,0.0272,0.0103,0.0104,0.0105,0.0245,0,-0.0508,-0.0554,-0.0528,-0.0559,-0.0575,-0.0514,-0.0504,-0.0457,-0.0399,-0.035,-0.0256,-0.0202,-0.0145,-0.0111,-0.0057,0.0052,0.0103,0.0043,0.0245,0.0252,0.0308,0.0283,0.0332,0.0464,0.0255,0.0257,0.0258,0,-0.0563,-0.0587,-0.0635,-0.0637,-0.0636,-0.0639,-0.06,-0.058,-0.0492,-0.0445,-0.0367,-0.0285,-0.0193,-0.015,0.0021,-0.002,0.0081,0.0163,0.0171,0.0282,0.0322,0.0487,0.049,0.0655,0.0273,0.0272,0.0271,0,-0.0628,-0.0656,-0.0699,-0.0702,-0.0693,-0.0694,-0.0677,-0.061,-0.0588,-0.0498,-0.0463,-0.0341,-0.0272,-0.0139,0.0041,0.0028,0.0234,0.024,0.0387,0.0393,0.051,0.0523,0.0705,0.0355,0.0355,0.0354,0.0354,0,-0.0694,-0.0725,-0.0734,-0.076,-0.0798,-0.0761,-0.0771,-0.0731,-0.0666,-0.0635,-0.0515,-0.0451,-0.0268,-0.0121,0.0029,0.0249,0.0231,0.0392,0.0435,0.0462,0.047,0.068,0.0739,0.036,0.0358,0.0357,0.0356,0,-0.0758,-0.0765,-0.0816,-0.0829,-0.0834,-0.0859,-0.0844,-0.0842,-0.0769,-0.0722,-0.0696,-0.0529,-0.0329,-0.0125,0.011,0.0241,0.0553,0.0518,0.0544,0.0587,0.0856,0.0905,0.1149,0.1255,0.0695,0.0697,0.0699,0,-0.0796,-0.0832,-0.0878,-0.0912,-0.0921,-0.0946,-0.0958,-0.0904,-0.089,-0.0757,-0.0735,-0.0536,-0.0367,0.0007,0.0272,0.0558,0.0677,0.0755,0.0737,0.0894,0.098,0.1011,0.1083,0.084,0.0842,0.0845,0.0847,0,-0.0865,-0.0879,-0.092,-0.0998,-0.103,-0.106,-0.1066,-0.1072,-0.0988,-0.0908,-0.0762,-0.0612,-0.0237,0.0118,0.0482,0.0655,0.0887,0.0811,0.0975,0.1115,0.1162,0.1277,0.0726,0.0867,0.0865,0.0864,0.0863,0.0862,-0.0903,-0.0953,-0.1008,-0.1074,-0.1118,-0.1154,-0.1164,-0.1134,-0.1081,-0.0916,-0.0786,-0.0477,-0.0011,0.0523,0.0715,0.113,0.1081,0.1252,0.1301,0.1321,0.1417,0.0912,0.1093,0.1092,0.1091,0.1091,0.109,0,-0.0946,-0.1002,-0.1079,-0.1152,-0.1204,-0.1205,-0.1215,-0.1166,-0.108,-0.0864,-0.0668,-0.0086,0.0393,0.0832,0.1375,0.1603,0.1652,0.1718,0.1782,0.1835,0.1405,0.1405,0.166,0.166,0.1659,0.1659,0.1659,0.1659,-0.0971,-0.1053,-0.1097,-0.1197,-0.1244,-0.1264,-0.1258,-0.1129,-0.0955,-0.0549,-0.0177,0.0107,0.0702,0.1489,0.1994,0.2047,0.2242,0.2232,0.233,0.2033,0.1993,0.1955,0.1972,0.2341,0.2341,0.2758,0.2762,0.2765]}],[{"header":{"parameterUnit":"m.s-1","parameterCategory":2,"la1":30.2991,"la2":30.254,"lo1":-89.0895,"lo2":-89.0444,"dy":0.0017,"dx":0.0017,"nx":28,"ny":28,"refTime":"2025-02-06T09:00:00:Z","depth":"2","parameterNumber":2,"parameterNumberName":"U-component_of_CURRENTS"},"data":[0,0,0,0,0,0,0,0,0,0,0,0,0,0,0,0,0,0,0,0,0,0,0,0,0,0,0,0,0,0,0,0,0,0,0,0,0,0,0,0,0,0,0,0,0,0,0,0,0,0,0,0,0,0,0,0,0,0,-0.2341,-0.2342,0,-0.2376,-0.2376,-0.2376,-0.2362,-0.2361,-0.236,-0.236,-0.2362,-0.2362,-0.2363,0,0,0,0,0,0,0,0,0,0,0,0,0,-0.2267,-0.2269,-0.2341,-0.2342,-0.2343,-0.2376,-0.2376,-0.2376,-0.2362,-0.2361,-0.236,-0.2359,-0.2361,-0.2362,-0.2363,0,0,0,0,0,0,0,0,0,0,0,0,0,-0.2299,-0.2269,-0.2341,-0.234,-0.2341,-0.2376,-0.2376,-0.2377,-0.2362,-0.2361,-0.236,-0.2359,-0.2361,-0.2362,-0.2363,-0.239,0,0,-0.2366,-0.2367,0,0,0,0,0,0,0,0,-0.2297,-0.2301,-0.234,-0.2341,-0.2341,-0.2365,-0.2351,-0.238,-0.2362,-0.2352,-0.236,-0.2358,-0.2362,-0.2363,-0.2369,-0.239,-0.239,-0.2366,-0.2367,-0.2368,-0.2368,0,0,0,0,0,0,0,-0.2295,-0.23,-0.2353,-0.2341,-0.2341,-0.234,-0.2343,-0.2356,-0.236,-0.2353,-0.2352,-0.2359,-0.2361,-0.2368,-0.2369,-0.239,-0.2366,-0.2367,-0.2368,-0.2368,-0.2439,-0.2441,0,0,0,0,0,0,-0.2295,-0.2298,-0.2352,-0.2354,-0.2318,-0.2342,-0.2346,-0.2357,-0.2361,-0.2361,-0.236,-0.2358,-0.2367,-0.2368,-0.2369,-0.2401,-0.2368,-0.2369,-0.2369,-0.2438,-0.244,-0.2441,0,0,0,0,0,0,-0.2294,-0.23,-0.2351,-0.2328,-0.2334,-0.2345,-0.2357,-0.2358,-0.2368,-0.2367,-0.2366,-0.237,-0.2366,-0.2368,-0.2388,-0.24,-0.2369,-0.237,-0.2437,-0.2439,-0.244,-0.2464,0,0,0,0,0,0,-0.2292,-0.2299,-0.2307,-0.2328,-0.2336,-0.2379,-0.2359,-0.236,-0.2375,-0.2373,-0.2375,-0.2374,-0.2366,-0.2386,-0.2389,-0.2401,-0.2371,-0.2435,-0.2437,-0.244,-0.2462,-0.2466,-0.247,0,0,0,0,0,-0.2289,-0.2307,-0.2307,-0.2314,-0.2346,-0.238,-0.2384,-0.2386,-0.2376,-0.239,-0.2389,-0.2374,-0.2403,-0.2388,-0.2391,-0.2404,-0.2434,-0.2437,-0.244,-0.2459,-0.2465,-0.247,0,0,0,0,0,0,-0.2279,-0.2308,-0.2309,-0.2334,-0.2358,-0.2378,-0.2389,-0.2394,-0.2406,-0.24,-0.2392,-0.2393,-0.2415,-0.2413,-0.2397,-0.2433,-0.2416,-0.2419,-0.243,-0.2436,-0.244,-0.243,-0.2372,0,0,0,0,0,-0.2282,-0.2298,-0.2329,-0.2347,-0.2361,-0.2377,-0.2389,-0.2396,-0.241,-0.2413,-0.2416,-0.242,-0.2431,-0.2435,-0.2445,-0.2467,-0.2447,-0.2478,-0.2483,-0.2487,-0.2482,-0.2471,-0.2474,-0.245,-0.245,-0.245,0,0,-0.228,-0.2299,-0.2307,-0.2345,-0.2359,-0.2386,-0.2381,-0.2408,-0.2425,-0.2413,-0.2435,-0.244,-0.2442,-0.2464,-0.2474,-0.2461,-0.2483,-0.249,-0.2493,-0.2486,-0.2474,-0.2476,-0.2478,-0.2452,-0.2452,-0.2452,0,0,-0.2285,-0.2306,-0.232,-0.2347,-0.2379,-0.2396,-0.2407,-0.2437,-0.2445,-0.2475,-0.2466,-0.2478,-0.25,-0.2499,-0.2501,-0.254,-0.251,-0.2549,-0.2558,-0.2548,-0.2549,-0.255,-0.2521,-0.2519,-0.2547,-0.2547,-0.2547,0,-0.2278,-0.2304,-0.233,-0.2356,-0.2376,-0.2402,-0.2426,-0.2447,-0.2478,-0.2487,-0.2484,-0.2512,-0.2514,-0.2529,-0.254,-0.2548,-0.2531,-0.2534,-0.2552,-0.2552,-0.2552,-0.2523,-0.252,-0.2548,-0.2548,-0.2548,-0.2548,0,-0.2292,-0.2319,-0.2333,-0.2371,-0.24,-0.2428,-0.2465,-0.2491,-0.2505,-0.2519,-0.2545,-0.2551,-0.2561,-0.257,-0.2565,-0.2575,-0.2559,-0.2559,-0.2532,-0.2556,-0.2524,-0.252,-0.255,-0.255,-0.255,-0.2549,0,0,-0.2253,-0.2327,-0.2329,-0.2352,-0.2411,-0.2434,-0.2476,-0.2514,-0.2531,-0.256,-0.2574,-0.2596,-0.2593,-0.2596,-0.2595,-0.2588,-0.2574,-0.2575,-0.2574,-0.2534,-0.2537,-0.2453,-0.2441,-0.2577,-0.2577,-0.2577,-0.2511,0,-0.2249,-0.2297,-0.2337,-0.238,-0.2408,-0.2455,-0.249,-0.2529,-0.2557,-0.2581,-0.2591,-0.2606,-0.2606,-0.2607,-0.2603,-0.2589,-0.2569,-0.2591,-0.253,-0.2528,-0.244,-0.2436,-0.2266,-0.2186,-0.2507,-0.2507,-0.2506,0,-0.224,-0.2276,-0.2318,-0.2387,-0.2402,-0.2431,-0.2486,-0.2523,-0.2568,-0.2589,-0.2608,-0.2617,-0.2621,-0.2613,-0.2587,-0.2602,-0.2567,-0.2549,-0.2546,-0.2455,-0.2437,-0.2217,-0.2168,-0.2501,-0.2501,-0.2501,-0.2502,0,-0.2187,-0.2259,-0.229,-0.2314,-0.2397,-0.2418,-0.2458,-0.2515,-0.2541,-0.2587,-0.2601,-0.2617,-0.2613,-0.2594,-0.2561,-0.2574,-0.2517,-0.2528,-0.2415,-0.2408,-0.2243,-0.2222,-0.2491,-0.2491,-0.2491,-0.2491,-0.2491,0,-0.2164,-0.2185,-0.2267,-0.2283,-0.2313,-0.2385,-0.2417,-0.2463,-0.2519,-0.2539,-0.2591,-0.2596,-0.2608,-0.2583,-0.2556,-0.2466,-0.2508,-0.2403,-0.2383,-0.2247,-0.2228,-0.249,-0.2491,-0.2488,-0.2489,-0.2489,-0.249,0,-0.2094,-0.2154,-0.2188,-0.2267,-0.2289,-0.2306,-0.2382,-0.2404,-0.2474,-0.2501,-0.2513,-0.2566,-0.2536,-0.2525,-0.2483,-0.2437,-0.2377,-0.2329,-0.216,-0.212,-0.2275,-0.2279,-0.2198,-0.2194,-0.2191,-0.2189,-0.2187,0,-0.2061,-0.2073,-0.2148,-0.2161,-0.2192,-0.2236,-0.2262,-0.2357,-0.2385,-0.2471,-0.247,-0.2474,-0.2437,-0.235,-0.2274,-0.2184,-0.2275,-0.1983,-0.1977,-0.2256,-0.2245,-0.2253,-0.226,-0.1766,-0.176,-0.1756,-0.1752,0,-0.1983,-0.201,-0.2036,-0.2065,-0.2093,-0.2125,-0.2176,-0.2192,-0.2298,-0.232,-0.2334,-0.2313,-0.2248,-0.2079,-0.1979,-0.1915,-0.1991,-0.1889,-0.221,-0.1874,-0.1844,-0.1836,-0.1857,-0.1713,-0.1717,-0.172,-0.1722,-0.1723,-0.1906,-0.1901,-0.1934,-0.1945,-0.1976,-0.1984,-0.1963,-0.2026,-0.2037,-0.2038,-0.2126,-0.2033,-0.2011,-0.1759,-0.1657,-0.158,-0.1721,-0.165,-0.1665,-0.1685,-0.1654,-0.1622,-0.1442,-0.1444,-0.1446,-0.1448,-0.1449,0,-0.1798,-0.1803,-0.1812,-0.182,-0.1795,-0.1857,-0.1874,-0.1824,-0.1778,-0.1808,-0.1783,-0.1587,-0.1465,-0.1448,-0.1261,-0.1219,-0.122,-0.1174,-0.1183,-0.1222,-0.1257,-0.1207,-0.0874,-0.0872,-0.0871,-0.0869,0,0,-0.1742,-0.1704,-0.1706,-0.1625,-0.1627,-0.1542,-0.1515,-0.146,-0.1438,-0.1345,-0.1298,-0.1391,-0.1406,-0.1149,-0.1081,-0.0947,-0.1076,-0.0895,-0.1356,-0.1405,-0.1438,-0.1528,-0.1494,0,0,0,0,0]},{"header":{"parameterUnit":"m.s-1","parameterCategory":2,"la1":30.2991,"la2":30.254,"lo1":-89.0895,"lo2":-89.0444,"dy":0.0017,"dx":0.0017,"nx":28,"ny":28,"refTime":"2025-02-06T09:00:00:Z","depth":"2","parameterNumber":3,"parameterNumberName":"V-component_of_CURRENTS"},"data":[0,0,0,0,0,0,0,0,0,0,0,0,0,0,0,0,0,0,0,0,0,0,0,0,0,0,0,0,0,0,0,0,0,0,0,0,0,0,0,0,0,0,0,0,0,0,0,0,0,0,0,0,0,0,0,0,0,0,-0.0302,-0.0302,0,-0.0238,-0.0237,-0.0236,-0.0192,-0.0191,-0.0191,-0.0191,-0.008,-0.0077,-0.0075,0,0,0,0,0,0,0,0,0,0,0,0,0,-0.0336,-0.0336,-0.0302,-0.0302,-0.0301,-0.0238,-0.0237,-0.0236,-0.0192,-0.0191,-0.0191,-0.0191,-0.0081,-0.0078,-0.0074,0,0,0,0,0,0,0,0,0,0,0,0,0,-0.03,-0.0336,-0.0302,-0.0273,-0.027,-0.0238,-0.0237,-0.0236,-0.0192,-0.0191,-0.0191,-0.0191,-0.0082,-0.0078,-0.0074,-0.0053,0,0,-0.0061,-0.0059,0,0,0,0,0,0,0,0,-0.0302,-0.0298,-0.0278,-0.0275,-0.0271,-0.0224,-0.0208,-0.0173,-0.0192,-0.0219,-0.0191,-0.0191,-0.0125,-0.0118,-0.0104,-0.0047,-0.0043,-0.0061,-0.0058,-0.0056,-0.0055,0,0,0,0,0,0,0,-0.0305,-0.0301,-0.0275,-0.0277,-0.0273,-0.0245,-0.024,-0.0201,-0.0172,-0.0217,-0.0214,-0.021,-0.0123,-0.0108,-0.0101,-0.0041,-0.0061,-0.0057,-0.0054,-0.0053,0.0056,0.0056,0,0,0,0,0,0,-0.0319,-0.0303,-0.0277,-0.0273,-0.0288,-0.0245,-0.0239,-0.0238,-0.0173,-0.0164,-0.021,-0.0208,-0.0115,-0.0106,-0.0097,-0.0067,-0.0056,-0.0052,-0.005,0.0055,0.0056,0.0056,0,0,0,0,0,0,-0.032,-0.0318,-0.0279,-0.0288,-0.0281,-0.0246,-0.0244,-0.0237,-0.0222,-0.0169,-0.0159,-0.0203,-0.0115,-0.0103,-0.0064,-0.0063,-0.005,-0.0047,0.0055,0.0055,0.0056,-0.0008,0,0,0,0,0,0,-0.0322,-0.0319,-0.0322,-0.0289,-0.0282,-0.0267,-0.0244,-0.0236,-0.0221,-0.0217,-0.0159,-0.0149,-0.0114,-0.0071,-0.006,-0.0056,-0.0043,0.0054,0.0055,0.0056,-0.0006,-0.001,-0.0013,0,0,0,0,0,-0.0323,-0.0334,-0.0323,-0.032,-0.0288,-0.0268,-0.0261,-0.0233,-0.0221,-0.0218,-0.0178,-0.0151,-0.0059,-0.0067,-0.0055,-0.005,0.0054,0.0055,0.0056,-0.0005,-0.0009,-0.0013,0,0,0,0,0,0,-0.035,-0.0329,-0.0317,-0.032,-0.0298,-0.0261,-0.0258,-0.0237,-0.0203,-0.02,-0.0148,-0.0134,-0.01,-0.0064,-0.0075,-0.0015,0.0003,0.0006,-0.0047,-0.0051,-0.0054,-0.0067,-0.004,0,0,0,0,0,-0.0359,-0.0361,-0.0333,-0.0335,-0.0327,-0.0293,-0.0281,-0.0263,-0.023,-0.0215,-0.0173,-0.0127,-0.0087,-0.0062,-0.0023,0.001,0.005,0.0024,0.002,0.0017,0.0016,0.0072,0.0073,0.0059,0.0059,0.0059,0,0,-0.0371,-0.0359,-0.036,-0.0341,-0.0322,-0.0318,-0.0284,-0.0273,-0.0266,-0.0207,-0.0182,-0.0139,-0.0081,-0.0047,-0.0028,-0.0017,0.0043,0.0018,0.0015,0.0016,0.0072,0.0074,0.0075,0.0059,0.0059,0.0059,0,0,-0.04,-0.0385,-0.0398,-0.0384,-0.0364,-0.034,-0.034,-0.0304,-0.0283,-0.0255,-0.021,-0.0166,-0.0107,-0.0063,-0.0034,-0.0028,0.0021,-0.0014,-0.0037,0.0016,0.0018,0.0019,0.0071,0.0078,-0.0012,-0.0012,-0.0012,0,-0.0417,-0.0428,-0.0398,-0.0407,-0.0402,-0.0354,-0.0366,-0.0337,-0.0292,-0.0272,-0.0256,-0.0159,-0.0113,-0.0062,-0.0061,-0.0035,0.0001,-0.0032,0.0011,0.0013,0.0016,0.0069,0.0077,-0.0015,-0.0015,-0.0015,-0.0014,0,-0.0456,-0.0463,-0.0469,-0.0465,-0.0453,-0.0455,-0.0415,-0.0394,-0.0361,-0.0326,-0.0271,-0.0203,-0.0144,-0.012,-0.0089,-0.0043,-0.0022,-0.0005,0.0014,0.0013,0.007,0.008,-0.002,-0.0019,-0.0018,-0.0017,0,0,-0.0497,-0.0499,-0.0502,-0.0512,-0.0486,-0.0482,-0.0464,-0.0431,-0.0417,-0.0357,-0.0327,-0.0249,-0.0205,-0.0168,-0.0114,-0.0064,-0.0013,-0.0032,-0.0028,0.0009,0.0105,0.0129,0.0142,0.0008,0.0009,0.001,0.0136,0,-0.0538,-0.0578,-0.0558,-0.0584,-0.0599,-0.0552,-0.054,-0.05,-0.0452,-0.0407,-0.0321,-0.0273,-0.0225,-0.0196,-0.0138,-0.0046,0.001,-0.0048,0.011,0.0115,0.0128,0.0153,0.0126,0.0237,0.0145,0.0147,0.0148,0,-0.0583,-0.0604,-0.0645,-0.0649,-0.0649,-0.0651,-0.0619,-0.0601,-0.0521,-0.0481,-0.0408,-0.0338,-0.0249,-0.0213,-0.0052,-0.0094,-0.0002,0.0073,0.008,0.0131,0.0157,0.0225,0.0258,0.0165,0.0164,0.0163,0.0162,0,-0.0637,-0.0661,-0.0698,-0.0701,-0.0696,-0.0697,-0.0684,-0.0625,-0.0607,-0.0523,-0.0493,-0.0378,-0.0316,-0.019,-0.0034,-0.0043,0.0144,0.0152,0.0266,0.0269,0.0293,0.0296,0.0268,0.0268,0.0267,0.0267,0.0267,0,-0.0691,-0.0718,-0.0729,-0.0751,-0.0786,-0.0755,-0.0764,-0.0729,-0.0673,-0.0647,-0.0536,-0.048,-0.0309,-0.0178,-0.0042,0.0146,0.0143,0.0272,0.0307,0.0271,0.027,0.0243,0.0239,0.0272,0.0271,0.027,0.0269,0,-0.0744,-0.0752,-0.0797,-0.081,-0.0816,-0.0839,-0.0831,-0.0829,-0.0766,-0.0726,-0.0702,-0.0552,-0.0377,-0.0194,0.0022,0.0135,0.031,0.0378,0.0324,0.035,0.0401,0.0392,0.0515,0.0517,0.0519,0.052,0.0522,0,-0.0776,-0.0807,-0.085,-0.0882,-0.0892,-0.0917,-0.0931,-0.0885,-0.0874,-0.0761,-0.0742,-0.0569,-0.0427,-0.01,0.0125,0.0374,0.0373,0.0485,0.0465,0.0407,0.0429,0.0417,0.0406,0.0477,0.0477,0.0478,0.0478,0,-0.0833,-0.0847,-0.0884,-0.0957,-0.099,-0.102,-0.1029,-0.1036,-0.0966,-0.09,-0.0778,-0.0652,-0.0337,-0.0066,0.0243,0.0384,0.0439,0.0505,0.0477,0.0408,0.0378,0.0397,0.0386,0.0484,0.0483,0.0483,0.0482,0.0482,-0.0866,-0.091,-0.0961,-0.1024,-0.1067,-0.1105,-0.1119,-0.1098,-0.1058,-0.0934,-0.0813,-0.0586,-0.0338,0.0113,0.0329,0.0525,0.0521,0.0572,0.0567,0.0563,0.0526,0.0499,0.0621,0.0621,0.0621,0.0622,0.0622,0,-0.0905,-0.0954,-0.1024,-0.1094,-0.1148,-0.1151,-0.1167,-0.1141,-0.1078,-0.0926,-0.0767,-0.0468,-0.0155,0.0107,0.0424,0.0607,0.0587,0.0633,0.057,0.0564,0.0559,0.0519,0.0615,0.0615,0.0616,0.0616,0,0,-0.0927,-0.1,-0.1039,-0.1137,-0.1185,-0.1218,-0.1219,-0.1148,-0.1033,-0.0867,-0.0686,-0.0451,-0.0136,0.0083,0.0312,0.0475,0.0472,0.049,0.0478,0.0371,0.0364,0.0508,0.0438,0,0,0,0,0]}],[{"header":{"parameterUnit":"m.s-1","parameterCategory":2,"la1":30.2991,"la2":30.254,"lo1":-89.0895,"lo2":-89.0444,"dy":0.0017,"dx":0.0017,"nx":28,"ny":28,"refTime":"2025-02-06T09:00:00:Z","depth":"4","parameterNumber":2,"parameterNumberName":"U-component_of_CURRENTS"},"data":[0,0,0,0,0,0,0,0,0,0,0,0,0,0,0,0,0,0,0,0,0,0,0,0,0,0,0,0,0,0,0,0,0,0,0,0,0,0,0,0,0,0,0,0,0,0,0,0,0,0,0,0,0,0,0,0,0,0,-0.1591,-0.1592,0,-0.165,-0.1651,-0.1651,-0.1676,-0.1676,-0.1676,-0.1677,-0.1739,-0.1741,-0.1743,0,0,0,0,0,0,0,0,0,0,0,0,0,-0.1506,-0.1508,-0.1591,-0.1592,-0.1593,-0.165,-0.1651,-0.1651,-0.1676,-0.1676,-0.1677,-0.1677,-0.1739,-0.1741,-0.1743,0,0,0,0,0,0,0,0,0,0,0,0,0,-0.155,-0.1508,-0.1591,-0.1613,-0.1616,-0.165,-0.1651,-0.1651,-0.1676,-0.1676,-0.1677,-0.1677,-0.1738,-0.1741,-0.1743,-0.1757,0,0,-0.1751,-0.1752,0,0,0,0,0,0,0,0,-0.1548,-0.1553,-0.1609,-0.1612,-0.1615,-0.1657,-0.1644,-0.1687,-0.1676,-0.1652,-0.1677,-0.1677,-0.1713,-0.1718,-0.1726,-0.176,-0.1762,-0.1751,-0.1752,-0.1753,-0.1754,0,0,0,0,0,0,0,-0.1545,-0.1551,-0.1613,-0.161,-0.1614,-0.1623,-0.1629,-0.1652,-0.168,-0.1654,-0.1656,-0.1665,-0.1715,-0.1724,-0.1728,-0.1763,-0.1751,-0.1753,-0.1754,-0.1755,-0.1884,-0.1885,0,0,0,0,0,0,-0.1541,-0.1548,-0.1611,-0.1615,-0.1583,-0.1624,-0.1631,-0.1642,-0.168,-0.1686,-0.1665,-0.1666,-0.172,-0.1725,-0.173,-0.1814,-0.1753,-0.1756,-0.1757,-0.1882,-0.1884,-0.1886,0,0,0,0,0,0,-0.1539,-0.1546,-0.1609,-0.1584,-0.1593,-0.1626,-0.1638,-0.1644,-0.168,-0.1689,-0.1695,-0.17,-0.172,-0.1727,-0.178,-0.1814,-0.1757,-0.1759,-0.1879,-0.1882,-0.1885,-0.1939,0,0,0,0,0,0,-0.1536,-0.1545,-0.1566,-0.1584,-0.1594,-0.165,-0.1639,-0.1645,-0.1685,-0.1688,-0.172,-0.1724,-0.1721,-0.1777,-0.1783,-0.1816,-0.1761,-0.1877,-0.1881,-0.1884,-0.1934,-0.1943,-0.195,0,0,0,0,0,-0.1533,-0.1559,-0.1566,-0.1575,-0.1617,-0.1652,-0.1659,-0.1681,-0.1687,-0.1712,-0.1736,-0.1725,-0.1804,-0.1781,-0.1787,-0.1822,-0.1875,-0.188,-0.1884,-0.1931,-0.1941,-0.195,0,0,0,0,0,0,-0.1538,-0.1565,-0.1573,-0.1608,-0.1638,-0.1657,-0.1688,-0.17,-0.1739,-0.1749,-0.1752,-0.1759,-0.1817,-0.1817,-0.1791,-0.1871,-0.1837,-0.1843,-0.1871,-0.1881,-0.1888,-0.1875,-0.1763,0,0,0,0,0,-0.1547,-0.1573,-0.1599,-0.1631,-0.1649,-0.1674,-0.1696,-0.1713,-0.1742,-0.176,-0.1784,-0.181,-0.1836,-0.1857,-0.1881,-0.1927,-0.1905,-0.1954,-0.1962,-0.1969,-0.1964,-0.1965,-0.1972,-0.19,-0.19,-0.19,0,0,-0.1558,-0.1577,-0.1594,-0.1634,-0.1659,-0.1691,-0.1688,-0.1734,-0.1766,-0.1761,-0.1825,-0.1844,-0.1856,-0.1906,-0.1932,-0.1913,-0.1979,-0.1974,-0.198,-0.1971,-0.197,-0.1976,-0.1982,-0.1903,-0.1903,-0.1902,0,0,-0.158,-0.1613,-0.1636,-0.1666,-0.171,-0.1728,-0.1748,-0.1789,-0.1817,-0.1875,-0.1877,-0.1916,-0.1967,-0.1975,-0.1985,-0.2053,-0.2022,-0.2071,-0.2099,-0.2101,-0.2106,-0.211,-0.2088,-0.209,-0.2073,-0.2073,-0.2073,0,-0.1593,-0.1623,-0.1651,-0.1682,-0.1711,-0.1747,-0.178,-0.1816,-0.1872,-0.1896,-0.1907,-0.1979,-0.1994,-0.2033,-0.2058,-0.207,-0.2058,-0.2059,-0.2109,-0.2113,-0.2116,-0.2092,-0.2093,-0.2076,-0.2076,-0.2075,-0.2075,0,-0.1618,-0.1658,-0.168,-0.1725,-0.1763,-0.1804,-0.1849,-0.1899,-0.1939,-0.1964,-0.203,-0.2055,-0.2088,-0.2109,-0.2106,-0.2144,-0.2124,-0.2118,-0.2078,-0.2126,-0.2098,-0.2098,-0.2081,-0.2079,-0.2079,-0.2078,0,0,-0.1595,-0.1679,-0.1688,-0.1719,-0.1791,-0.182,-0.1888,-0.1943,-0.1982,-0.2045,-0.2086,-0.2142,-0.2154,-0.2165,-0.2172,-0.2179,-0.2195,-0.2164,-0.2163,-0.2129,-0.2185,-0.2035,-0.2021,-0.2201,-0.2201,-0.2202,-0.2154,0,-0.1604,-0.1663,-0.1706,-0.1772,-0.1807,-0.1868,-0.1922,-0.1983,-0.2035,-0.2089,-0.2123,-0.2169,-0.2175,-0.2196,-0.2209,-0.2202,-0.22,-0.2208,-0.2154,-0.2152,-0.2002,-0.2017,-0.2203,-0.2154,-0.2154,-0.2154,-0.2154,0,-0.1599,-0.1643,-0.1707,-0.1793,-0.1814,-0.1864,-0.195,-0.2005,-0.2083,-0.2123,-0.2173,-0.2198,-0.2232,-0.2227,-0.2232,-0.2239,-0.2216,-0.2203,-0.2201,-0.2038,-0.2002,-0.2098,-0.2154,-0.2154,-0.2154,-0.2154,-0.2154,0,-0.1547,-0.1639,-0.1691,-0.1723,-0.1826,-0.1872,-0.193,-0.2016,-0.2058,-0.2142,-0.2171,-0.222,-0.2239,-0.2239,-0.222,-0.2232,-0.22,-0.2209,-0.2048,-0.2037,-0.2162,-0.2158,-0.2196,-0.2196,-0.2197,-0.2197,-0.2197,0,-0.1519,-0.1563,-0.1678,-0.1705,-0.1768,-0.1853,-0.1921,-0.1986,-0.2068,-0.2102,-0.2181,-0.2195,-0.2245,-0.2235,-0.2219,-0.2118,-0.2197,-0.2039,-0.2012,-0.2187,-0.2186,-0.2161,-0.2158,-0.2195,-0.2195,-0.2196,-0.2196,0,-0.1446,-0.1525,-0.1588,-0.1706,-0.1745,-0.179,-0.1904,-0.1942,-0.2037,-0.208,-0.2105,-0.2176,-0.2157,-0.2171,-0.2153,-0.2086,-0.2026,-0.1969,-0.2136,-0.2121,-0.1864,-0.1864,-0.1784,-0.1779,-0.1774,-0.177,-0.1766,0,-0.141,-0.1438,-0.1567,-0.1602,-0.166,-0.1742,-0.179,-0.1908,-0.1941,-0.2043,-0.2039,-0.2067,-0.2091,-0.1932,-0.1977,-0.1908,-0.1889,-0.1843,-0.187,-0.1838,-0.1821,-0.1829,-0.1836,-0.1759,-0.1757,-0.1756,-0.1755,0,-0.1332,-0.1393,-0.1444,-0.1515,-0.1578,-0.1634,-0.1712,-0.1719,-0.1836,-0.1942,-0.1906,-0.1883,-0.1849,-0.1823,-0.1769,-0.1733,-0.1871,-0.1792,-0.1803,-0.1828,-0.1806,-0.1795,-0.1808,-0.1738,-0.174,-0.1742,-0.1743,0,-0.1272,-0.1285,-0.1358,-0.1403,-0.1476,-0.149,-0.1554,-0.1579,-0.1623,-0.1741,-0.1722,-0.1756,-0.1823,-0.173,-0.169,-0.1629,-0.1614,-0.1566,-0.1588,-0.1607,-0.1571,-0.152,-0.1324,0,0,0,0,0,-0.1201,-0.12,-0.1236,-0.128,-0.1344,-0.1381,-0.1479,-0.1545,-0.1659,-0.1582,-0.1646,-0.1607,-0.1547,-0.1571,-0.1468,-0.1614,-0.1623,-0.1488,-0.1581,-0.1644,-0.1664,-0.1638,0,0,0,0,0,0,-0.1153,-0.1185,-0.1191,-0.1158,-0.116,-0.1214,-0.1266,-0.1352,-0.1319,-0.1439,-0.1408,-0.15,-0.146,-0.1566,-0.1429,-0.1435,-0.1457,-0.1522,-0.1517,-0.1633,-0.1651,-0.1666,-0.1647,0,0,0,0,0]},{"header":{"parameterUnit":"m.s-1","parameterCategory":2,"la1":30.2991,"la2":30.254,"lo1":-89.0895,"lo2":-89.0444,"dy":0.0017,"dx":0.0017,"nx":28,"ny":28,"refTime":"2025-02-06T09:00:00:Z","depth":"4","parameterNumber":3,"parameterNumberName":"V-component_of_CURRENTS"},"data":[0,0,0,0,0,0,0,0,0,0,0,0,0,0,0,0,0,0,0,0,0,0,0,0,0,0,0,0,0,0,0,0,0,0,0,0,0,0,0,0,0,0,0,0,0,0,0,0,0,0,0,0,0,0,0,0,0,0,-0.0266,-0.0266,0,-0.0234,-0.0233,-0.0233,-0.0214,-0.0214,-0.0214,-0.0214,-0.0143,-0.0141,-0.0139,0,0,0,0,0,0,0,0,0,0,0,0,0,-0.0276,-0.0276,-0.0266,-0.0266,-0.0265,-0.0234,-0.0233,-0.0233,-0.0214,-0.0214,-0.0214,-0.0215,-0.0144,-0.0141,-0.0139,0,0,0,0,0,0,0,0,0,0,0,0,0,-0.0259,-0.0276,-0.0266,-0.0253,-0.0252,-0.0234,-0.0233,-0.0233,-0.0214,-0.0214,-0.0214,-0.0215,-0.0144,-0.0142,-0.0139,-0.012,0,0,-0.013,-0.0129,0,0,0,0,0,0,0,0,-0.026,-0.0259,-0.0255,-0.0254,-0.0252,-0.0229,-0.021,-0.0193,-0.0214,-0.0227,-0.0214,-0.0215,-0.0169,-0.0164,-0.0157,-0.0117,-0.0113,-0.013,-0.0128,-0.0127,-0.0126,0,0,0,0,0,0,0,-0.0261,-0.026,-0.0252,-0.0255,-0.0253,-0.0237,-0.0235,-0.0207,-0.0197,-0.0226,-0.0225,-0.0223,-0.0168,-0.016,-0.0155,-0.0112,-0.013,-0.0127,-0.0125,-0.0124,-0.0043,-0.0043,0,0,0,0,0,0,-0.0269,-0.0261,-0.0253,-0.0251,-0.0258,-0.0237,-0.0234,-0.0236,-0.0198,-0.0193,-0.0223,-0.0223,-0.0165,-0.0158,-0.0152,-0.013,-0.0127,-0.0124,-0.0122,-0.0043,-0.0043,-0.0042,0,0,0,0,0,0,-0.027,-0.0269,-0.0254,-0.0256,-0.0253,-0.0237,-0.0238,-0.0235,-0.023,-0.0196,-0.019,-0.0223,-0.0164,-0.0156,-0.0131,-0.0127,-0.0123,-0.012,-0.0044,-0.0043,-0.0043,-0.0084,0,0,0,0,0,0,-0.027,-0.027,-0.0275,-0.0257,-0.0253,-0.025,-0.0238,-0.0234,-0.023,-0.0228,-0.0193,-0.0187,-0.0164,-0.0135,-0.0128,-0.0123,-0.0118,-0.0044,-0.0044,-0.0043,-0.0083,-0.0084,-0.0086,0,0,0,0,0,-0.0271,-0.028,-0.0276,-0.0275,-0.0261,-0.025,-0.0247,-0.0234,-0.023,-0.023,-0.0205,-0.0188,-0.0125,-0.0133,-0.0124,-0.0118,-0.0045,-0.0044,-0.0043,-0.0082,-0.0084,-0.0086,0,0,0,0,0,0,-0.0286,-0.0278,-0.0274,-0.028,-0.0268,-0.0248,-0.0248,-0.0238,-0.0219,-0.0218,-0.0185,-0.0176,-0.0153,-0.0128,-0.0137,-0.0091,-0.0081,-0.0078,-0.0113,-0.0115,-0.0116,-0.0129,-0.0115,0,0,0,0,0,-0.0293,-0.0299,-0.0284,-0.0289,-0.0285,-0.0267,-0.0262,-0.0254,-0.0234,-0.0227,-0.0201,-0.017,-0.0141,-0.0124,-0.0096,-0.0071,-0.004,-0.006,-0.0061,-0.0063,-0.0066,-0.0014,-0.0011,-0.0039,-0.0039,-0.0039,0,0,-0.0301,-0.0297,-0.0301,-0.0293,-0.0284,-0.0284,-0.0264,-0.0261,-0.0258,-0.022,-0.0208,-0.0177,-0.0136,-0.0111,-0.0097,-0.009,-0.0037,-0.0062,-0.0064,-0.0066,-0.0013,-0.001,-0.0008,-0.0039,-0.0039,-0.0039,0,0,-0.0321,-0.0316,-0.0328,-0.0322,-0.0314,-0.03,-0.0301,-0.0282,-0.0271,-0.0254,-0.0224,-0.019,-0.0151,-0.0117,-0.0096,-0.0087,-0.0051,-0.0078,-0.0092,-0.0042,-0.0039,-0.0036,0.0007,0.0013,-0.0075,-0.0075,-0.0075,0,-0.0333,-0.0346,-0.0329,-0.0338,-0.0339,-0.0311,-0.0322,-0.0304,-0.0278,-0.0265,-0.0257,-0.0186,-0.0153,-0.0111,-0.011,-0.009,-0.006,-0.0092,-0.0045,-0.0041,-0.0038,0.0006,0.0014,-0.0077,-0.0077,-0.0076,-0.0076,0,-0.036,-0.0372,-0.0377,-0.0381,-0.0376,-0.0381,-0.0358,-0.0346,-0.0327,-0.0304,-0.0263,-0.0213,-0.017,-0.015,-0.0129,-0.0086,-0.0071,-0.0057,-0.0044,-0.0038,0.0008,0.0017,-0.0079,-0.0079,-0.0078,-0.0078,0,0,-0.0385,-0.0397,-0.04,-0.0413,-0.0402,-0.0403,-0.0393,-0.0374,-0.0367,-0.0325,-0.0304,-0.0243,-0.0211,-0.0183,-0.0141,-0.0095,-0.0044,-0.0071,-0.0068,-0.0037,0.0063,0.0042,0.0051,-0.0023,-0.0022,-0.0021,0.0085,0,-0.0414,-0.0449,-0.0441,-0.0467,-0.0482,-0.0455,-0.0451,-0.0427,-0.0394,-0.0364,-0.0295,-0.026,-0.0224,-0.0202,-0.0149,-0.0074,-0.0022,-0.0074,0.0059,0.0063,0.0038,0.006,-0.0016,0.0092,0.0094,0.0096,0.0097,0,-0.0444,-0.0465,-0.0503,-0.0518,-0.0521,-0.053,-0.0516,-0.0507,-0.045,-0.0422,-0.0365,-0.0311,-0.0235,-0.0207,-0.0069,-0.0106,-0.0027,0.0036,0.0042,0.0042,0.0059,0.0087,0.0114,0.0112,0.0111,0.011,0.0109,0,-0.0476,-0.0506,-0.0541,-0.0548,-0.0557,-0.0566,-0.0565,-0.0528,-0.0519,-0.0456,-0.0435,-0.0338,-0.0289,-0.0179,-0.0053,-0.0058,0.0099,0.0112,0.0173,0.0173,0.0177,0.0173,0.0216,0.0216,0.0216,0.0215,0.0215,0,-0.0508,-0.0536,-0.0565,-0.0585,-0.0624,-0.0611,-0.0631,-0.0609,-0.0573,-0.0557,-0.047,-0.0427,-0.028,-0.0173,-0.0058,0.008,0.0101,0.0174,0.0201,0.0158,0.0151,0.0184,0.0179,0.0219,0.0218,0.0218,0.0217,0,-0.0533,-0.0553,-0.0599,-0.063,-0.0644,-0.0671,-0.0688,-0.0692,-0.0652,-0.0625,-0.0606,-0.0487,-0.0348,-0.0197,-0.0012,0.0066,0.0205,0.0253,0.0192,0.0213,0.0248,0.024,0.0331,0.0331,0.0331,0.0331,0.0331,0,-0.0548,-0.0577,-0.0639,-0.0676,-0.0696,-0.0734,-0.0756,-0.0736,-0.0731,-0.0655,-0.0637,-0.0506,-0.0411,-0.0158,-0.0011,0.0204,0.0233,0.0296,0.0276,0.0244,0.0261,0.0252,0.0244,0.0331,0.0331,0.0331,0.0332,0,-0.0574,-0.0602,-0.0641,-0.0721,-0.0766,-0.0805,-0.0829,-0.0831,-0.079,-0.0759,-0.0642,-0.0504,-0.0347,-0.0157,0.0006,0.016,0.0246,0.0298,0.0299,0.0281,0.0246,0.0261,0.0253,0.0332,0.0332,0.0332,0.0332,0,-0.059,-0.0628,-0.0688,-0.075,-0.0814,-0.0851,-0.0863,-0.0837,-0.0818,-0.0724,-0.0687,-0.0504,-0.0396,-0.0178,-0.0026,0.0115,0.0151,0.0187,0.0195,0.0196,0.0116,0.005,0.0103,0,0,0,0,0,-0.0599,-0.0644,-0.0712,-0.078,-0.0843,-0.0873,-0.0896,-0.0892,-0.0855,-0.0775,-0.0725,-0.0568,-0.0327,-0.0219,-0.0078,-0.0042,0.0155,0.0124,0.0195,0.0335,0.0334,0.0261,0,0,0,0,0,0,-0.0607,-0.0673,-0.0709,-0.0785,-0.0834,-0.0891,-0.0906,-0.0884,-0.0826,-0.0768,-0.0633,-0.0549,-0.0311,-0.0402,-0.0077,-0.0035,0.0024,0.0243,0.0246,0.0335,0.0335,0.0334,0.0259,0,0,0,0,0]}]]